Location: Wingville
(42.9917°N, 90.4915°W)
Time: 03:45:30
(UTC+00:00)

UWE-3 - Pass Details

Date: 07 July 2022
Orbit: 583 x 677 km, 97.7° (Epoch: 07 August)

Event Time Altitude Azimuth Distance (km) Brightness Sun altitude
Rises 09:08:47 0° 17° (NNE) 2,928 ? -12.2°
Reaches altitude 10° 09:11:01 10° 22° (NNE) 2,031 ? -12.0°
Maximum altitude 09:15:22 55° 100° (E) 785 ? -11.4°
Drops below altitude 10° 09:19:48 10° 178° (S) 2,069 ? -10.9°
Enters shadow 09:20:48 - 181° (S) 2,471 ? -10.7°
